Theta_e
327 315 310 310 300 296 292 295 298 298 302 307 312 311 308 310 307 301 323 330 334 335 341 343 346 349 347 347 347 347 348 345 342 341 340 339 338 338 337 338 339 340 339 340 340 339 338 336 334
319 314 310 304 295 291 292 295 297 300 310 314 314 311 311 307 318 319 323 330 334 338 340 342 345 348 347 347 347 347 347 345 342 341 340 338 337 336 337 337 339 338 339 338 337 338 336 335 334
315 312 306 300 292 290 292 298 299 306 312 306 310 314 311 311 319 321 325 331 338 337 338 340 344 347 346 347 347 347 346 346 343 341 340 337 337 335 336 336 337 338 339 338 336 336 335 334 333
310 309 306 299 296 298 295 301 305 302 304 310 309 308 314 323 324 328 332 337 335 334 336 340 345 346 345 347 346 346 346 345 344 343 340 338 337 336 335 335 335 336 338 335 336 336 335 333 332
311 304 299 296 297 296 299 305 303 301 302 305 307 306 309 321 330 332 333 335 332 332 334 338 343 344 344 345 346 345 344 344 345 344 341 338 337 335 334 334 334 334 335 335 335 335 334 332 332
307 302 296 293 297 296 302 304 302 301 306 307 308 309 311 325 329 330 333 332 333 332 334 335 335 338 341 342 343 343 341 341 342 343 342 339 337 335 334 333 334 333 333 333 334 334 334 332 331
305 298 294 294 296 297 302 303 300 303 308 307 314 307 309 324 327 331 331 330 331 332 331 330 331 332 332 335 336 338 339 339 339 339 340 339 338 337 335 334 332 330 330 332 333 333 333 332 331
307 301 294 294 296 296 301 302 303 305 307 313 315 305 308 323 328 328 330 328 329 329 328 327 327 327 327 327 329 331 333 334 334 332 331 332 333 333 333 330 333 331 330 331 331 331 331 331 330
309 300 296 297 296 299 300 300 301 307 311 308 314 312 315 327 327 326 326 327 326 326 326 326 326 325 324 325 323 325 327 328 328 326 324 324 326 326 326 328 331 331 331 330 330 328 327 326 328
306 297 298 303 300 298 301 301 302 307 307 307 309 314 321 326 325 324 323 322 323 322 326 326 324 323 323 325 322 321 323 322 321 321 320 321 322 322 324 323 326 327 327 330 328 327 324 320 316
310 298 302 306 303 301 301 299 303 305 302 306 310 314 320 323 323 322 321 322 321 321 324 326 324 323 322 321 320 319 320 319 319 319 319 319 320 320 319 318 317 316 317 317 318 317 316 315 315
304 308 307 308 301 300 299 301 299 305 306 306 311 318 320 321 322 322 321 320 320 320 323 327 324 323 322 321 319 319 318 317 317 317 318 318 317 316 316 316 314 313 314 313 314 314 314 314 315
308 309 312 313 304 300 300 299 299 303 300 308 316 319 319 320 321 322 322 322 321 320 321 324 323 323 322 320 319 318 318 317 317 317 318 318 317 317 316 315 314 313 313 314 314 313 313 313 313
312 311 311 312 306 301 297 296 297 299 309 313 316 317 318 319 320 318 320 321 321 322 321 323 324 324 323 321 319 320 318 318 317 317 318 319 318 317 315 314 313 313 313 313 313 313 312 312 312
310 304 305 307 307 302 299 295 296 298 311 312 314 314 316 318 318 319 321 322 323 323 323 322 324 324 323 321 319 318 319 319 318 317 318 319 318 316 316 313 312 313 314 314 313 312 312 311 312
304 303 296 307 303 302 299 291 298 300 308 309 311 312 314 316 318 320 321 322 322 323 323 324 325 324 323 323 321 320 319 319 319 318 318 319 319 318 315 313 313 315 315 313 312 312 311 310 310
302 292 294 299 302 301 298 293 300 299 305 304 309 311 313 314 316 318 321 323 322 323 323 323 324 322 323 322 321 321 320 318 319 319 320 320 320 319 317 315 316 316 314 312 312 311 311 310 310
295 293 296 299 301 299 297 294 298 300 297 301 303 309 310 313 316 320 320 323 323 322 322 324 325 324 322 322 321 319 319 319 318 319 320 320 321 320 318 317 317 316 313 312 311 311 311 311 311
298 296 295 299 301 297 296 296 298 299 296 295 296 300 306 312 317 318 319 320 322 321 321 322 323 325 324 320 319 319 319 320 319 320 320 320 320 320 320 319 316 315 314 314 313 311 311 310 310
299 295 295 298 299 298 296 296 298 298 300 299 300 298 299 303 305 311 317 319 321 322 322 322 322 325 326 325 324 323 322 322 323 322 320 320 319 319 319 319 317 316 315 313 312 311 310 310 310
298 296 295 295 295 295 292 293 294 297 299 301 300 301 301 302 302 303 306 318 320 321 322 322 322 323 326 328 326 321 320 317 318 320 321 321 319 318 318 318 319 316 317 317 315 313 312 312 309
294 299 298 295 295 290 296 289 294 298 297 298 302 302 303 302 303 306 303 308 318 321 324 323 323 323 324 326 325 323 323 322 323 323 323 323 321 320 319 319 318 318 317 317 316 315 315 313 312
296 300 299 296 295 290 287 286 291 295 295 298 301 304 306 306 304 304 303 304 312 320 322 322 322 323 323 324 325 324 322 324 324 321 319 321 321 322 321 320 319 318 318 318 317 313 314 315 315
300 296 294 294 292 287 292 289 290 291 296 300 302 304 306 307 304 304 304 302 303 313 318 320 319 320 322 322 323 323 322 322 320 319 319 320 320 320 321 320 320 319 319 318 318 317 316 316 316
299 295 286 285 284 284 290 286 294 294 294 298 301 302 303 305 302 302 301 300 300 305 312 315 317 318 320 320 321 323 322 322 321 320 319 319 317 318 319 320 320 320 320 320 319 318 317 316 316
296 295 284 277 280 284 286 285 292 298 301 297 298 298 296 295 296 297 300 302 302 302 309 314 315 317 317 319 320 321 322 322 322 321 321 320 320 320 319 319 320 320 320 320 320 319 319 318 318
296 292 294 282 272 277 283 287 292 293 293 299 299 294 295 295 295 296 297 299 300 300 303 310 313 315 315 317 319 319 320 321 321 321 320 321 320 320 318 318 318 319 319 320 320 320 319 320 319
297 300 289 288 278 274 280 282 289 290 294 294 293 295 297 296 294 294 296 296 296 298 299 303 308 311 313 314 316 317 318 319 319 318 318 319 319 317 316 317 319 320 321 321 320 320 321 320 319
294 293 293 292 285 280 281 285 289 293 295 297 299 301 300 298 294 292 293 293 293 292 294 296 302 305 307 310 312 313 313 314 315 316 316 316 316 317 318 320 320 320 320 321 321 321 321 319 319
299 295 295 288 285 287 282 286 291 295 297 298 299 301 301 296 293 292 292 291 292 292 292 294 298 303 305 306 306 307 307 308 310 311 312 314 318 319 319 320 320 321 321 321 320 320 320 320 319
Wind_Speed
9 7 2 5 6 6 0 3 1 4 1 1 2 3 5 2 3 3 1 4 7 6 4 5 9 11 12 12 13 13 15 16 16 17 16 16 15 14 14 14 12 13 15 16 16 16 17 16 16
6 5 5 3 6 3 4 2 4 4 4 6 5 2 4 1 2 4 6 5 7 7 5 5 9 10 12 12 12 12 13 15 14 16 17 15 14 13 14 13 12 13 14 15 14 16 15 15 16
4 5 5 5 3 3 4 4 4 2 6 1 3 3 2 2 2 7 3 9 6 6 6 6 9 9 12 11 12 13 13 13 13 14 16 14 14 12 12 12 13 13 14 14 14 16 15 15 16
6 6 5 4 2 2 3 4 6 6 1 3 2 5 2 3 7 6 9 10 7 5 6 8 8 11 11 11 11 13 14 13 12 14 15 15 14 12 11 11 12 12 13 13 14 14 14 15 15
4 4 4 2 4 3 3 5 7 5 3 2 0 4 2 2 7 12 11 9 9 5 4 6 10 11 9 9 11 13 12 13 11 14 16 16 13 12 11 10 11 11 11 13 13 13 14 14 14
4 3 4 2 4 3 2 3 6 3 3 3 4 5 4 3 11 8 10 8 7 7 6 5 8 9 10 9 10 9 11 10 13 15 16 16 14 12 11 11 10 10 10 12 12 13 14 14 13
3 4 3 2 3 3 4 6 5 5 4 4 7 5 1 3 5 10 8 8 6 5 6 5 4 6 8 8 4 9 10 11 11 12 11 13 13 11 11 10 10 10 10 12 13 13 13 12 11
5 3 2 3 3 5 4 6 5 6 6 2 4 5 5 7 7 7 8 6 6 5 5 6 5 5 6 6 6 7 5 7 9 11 10 8 10 11 9 8 8 10 10 11 12 13 12 10 9
2 1 3 4 5 5 4 4 1 2 6 2 3 4 3 12 11 8 7 5 4 3 5 4 5 5 4 6 5 7 8 9 9 10 11 8 5 5 6 6 7 8 8 10 11 11 11 10 7
2 3 8 5 4 4 4 6 10 5 4 4 3 1 4 14 12 13 12 11 9 6 5 5 5 6 5 3 5 6 5 4 4 5 6 4 4 3 4 6 7 8 8 8 8 8 8 6 3
1 4 3 4 5 4 4 2 5 8 4 9 10 8 10 12 12 12 11 11 13 7 5 7 7 6 6 5 2 1 2 3 3 6 6 4 3 3 3 2 2 2 4 3 4 4 3 4 2
4 4 6 6 6 1 4 5 4 7 8 3 9 11 12 16 16 14 13 10 9 8 8 8 6 7 6 4 3 3 3 2 2 2 4 3 2 2 2 1 1 1 1 2 2 1 1 2 2
4 2 6 11 10 6 2 6 5 9 3 2 8 11 15 14 13 8 8 7 7 9 9 9 7 7 6 7 5 4 4 4 5 4 5 4 4 4 3 3 3 2 2 2 1 0 0 1 1
6 2 10 6 14 6 4 3 4 6 4 5 9 12 12 14 12 6 8 10 11 9 10 8 9 8 7 6 7 6 4 4 4 4 5 6 4 4 4 4 4 3 3 2 1 2 2 2 1
2 5 14 14 11 7 2 6 8 3 5 7 9 8 8 8 8 13 11 11 11 9 9 11 10 8 9 7 5 4 5 5 4 5 6 6 5 5 5 4 4 4 3 3 2 2 1 2 2
5 5 7 6 5 6 7 10 8 6 8 10 9 7 8 10 12 8 8 9 8 8 10 9 10 10 10 8 7 5 5 5 6 5 4 6 6 6 5 3 4 4 4 4 3 3 3 3 3
11 9 17 16 12 2 2 6 7 7 9 9 9 9 9 7 9 10 10 11 10 11 10 10 11 11 11 8 6 6 7 6 5 5 6 7 7 6 5 4 5 5 4 4 3 4 4 3 4
12 15 12 12 6 1 6 17 9 3 7 11 9 8 8 9 17 14 12 10 9 10 9 10 10 11 11 7 6 4 4 5 4 6 6 7 7 7 7 5 5 5 4 4 4 5 4 4 4
8 5 14 10 4 7 15 15 10 6 5 9 9 9 10 13 14 7 9 10 9 10 12 13 12 12 9 6 6 5 7 6 4 6 8 8 7 8 8 6 5 5 6 7 6 3 5 4 3
12 13 13 5 4 6 5 15 16 7 9 9 13 11 12 10 9 8 10 11 14 15 15 14 16 14 12 9 8 5 5 5 6 6 7 8 8 8 8 8 7 7 5 5 6 6 3 3 4
18 17 8 5 4 2 3 11 8 7 11 9 9 9 10 14 14 11 10 15 14 15 16 16 16 15 14 14 6 3 2 1 3 4 6 9 10 10 11 10 8 8 8 8 9 8 8 6 3
24 9 6 6 6 10 8 16 10 11 13 9 17 14 16 13 11 13 10 12 15 18 15 16 15 16 15 15 11 13 11 12 10 8 7 7 10 11 12 12 11 11 8 9 7 7 9 5 7
16 7 8 7 7 1 4 4 7 8 11 12 19 19 19 17 16 18 13 15 15 14 15 15 15 15 14 15 16 12 13 10 7 5 7 9 8 11 11 12 11 11 8 9 9 7 9 8 9
6 7 4 2 2 11 17 9 11 11 12 14 17 14 20 16 14 12 11 9 8 10 12 11 12 14 14 16 17 16 16 13 7 8 8 7 7 6 10 10 10 10 10 11 11 11 12 12 10
12 12 6 11 9 16 10 7 26 4 9 11 18 18 17 14 11 13 13 11 10 11 10 10 12 14 14 15 15 17 17 15 15 12 9 8 6 7 10 11 11 10 12 12 11 11 12 12 11
31 25 7 11 11 14 5 14 14 11 15 11 15 11 6 9 9 10 12 13 13 13 12 12 12 14 13 15 16 14 15 10 10 10 8 8 9 8 7 9 10 11 11 10 10 8 10 10 11
22 22 14 6 4 3 6 13 9 8 9 15 15 7 11 11 10 12 10 10 10 9 11 13 12 12 10 13 11 11 11 11 11 10 7 8 7 6 6 8 9 11 11 12 11 10 12 12 12
15 22 15 6 10 7 6 10 17 12 14 11 11 14 15 11 9 8 8 9 7 8 7 8 8 10 9 9 9 9 10 10 9 7 9 9 7 6 7 8 10 10 11 11 12 11 12 13 11
15 15 10 8 7 6 11 15 10 16 16 18 19 19 19 14 11 8 8 7 7 6 7 8 8 8 7 8 8 8 6 6 6 6 6 6 6 6 7 9 10 11 11 12 12 14 13 14 14
25 20 23 14 16 15 2 17 4 10 18 19 20 22 17 9 9 8 8 8 8 8 7 7 7 8 8 7 6 7 5 5 5 4 3 2 4 4 5 6 8 9 10 10 11 12 11 13 13
Wind_Direction
321 321 67 42 53 65 326 246 89 136 188 304 57 142 167 64 142 202 329 165 132 133 145 129 124 123 121 116 115 118 111 108 104 100 98 94 95 96 96 93 98 101 97 87 81 89 92 84 86
321 345 44 68 79 66 269 261 207 182 158 121 75 36 66 116 97 107 120 186 148 139 133 126 121 127 130 127 121 120 114 113 111 108 105 99 98 96 96 98 100 104 93 84 83 94 87 86 85
6 27 66 79 97 164 212 209 186 89 153 66 99 53 115 175 54 156 160 141 138 130 133 134 131 134 129 130 125 122 119 118 119 118 110 105 98 95 94 99 98 92 95 89 90 93 91 86 84
4 9 38 72 278 244 216 189 160 122 225 92 126 79 5 240 154 166 137 127 124 134 137 139 146 142 138 136 135 137 134 131 128 127 121 112 105 97 92 92 101 105 99 93 88 95 89 88 89
26 50 47 37 282 272 258 174 153 149 157 115 186 179 130 321 114 134 132 135 137 140 141 145 145 141 134 142 147 148 144 127 136 132 124 117 113 109 100 98 104 104 99 91 87 90 88 86 90
34 89 61 258 264 305 243 169 142 136 149 140 96 131 181 127 135 148 141 145 145 149 151 152 150 142 139 140 149 153 122 127 121 124 129 126 120 113 104 99 97 99 99 94 85 89 91 88 91
103 74 212 234 271 307 204 146 163 161 154 231 164 131 272 185 157 143 142 130 139 143 137 138 142 143 137 116 139 128 128 128 115 101 106 123 122 115 108 102 102 97 97 98 91 89 94 96 98
67 83 164 246 222 258 187 170 154 148 221 77 151 184 196 198 148 114 123 122 130 138 141 146 131 128 122 113 97 72 83 106 93 102 78 89 105 102 97 82 93 100 105 107 95 83 81 97 103
101 47 207 241 178 244 146 167 183 109 120 244 195 170 273 134 131 123 129 116 126 135 142 141 137 128 127 128 101 81 59 68 74 79 72 64 76 90 96 98 89 93 91 97 93 86 76 73 104
293 167 215 218 205 233 216 182 166 143 138 248 252 223 107 137 160 159 168 171 174 171 164 161 149 145 133 91 125 122 96 89 96 98 97 87 85 81 87 72 62 57 61 63 72 71 71 70 86
254 213 246 276 248 236 202 247 185 126 231 217 201 172 157 161 172 171 180 180 178 175 174 181 158 154 145 131 122 100 124 141 148 151 137 134 123 121 108 96 78 69 57 51 50 36 54 72 101
229 253 259 292 345 276 203 144 208 189 219 226 195 160 166 175 185 181 183 180 173 167 180 184 179 155 155 139 149 146 141 135 139 156 137 132 116 113 114 107 103 102 121 115 68 71 42 89 118
183 315 339 327 304 279 187 217 206 227 257 45 135 153 181 184 190 185 178 171 170 181 177 183 173 172 167 162 159 161 179 174 181 177 185 166 168 180 169 182 185 193 190 186 192 143 236 248 216
155 2 323 305 293 278 228 237 154 243 146 134 157 178 186 191 191 158 173 182 185 182 186 173 186 184 167 180 177 179 167 185 190 194 190 189 185 179 184 203 210 213 201 204 212 223 232 253 255
142 353 315 282 265 246 165 269 228 205 151 182 196 185 189 199 186 202 191 192 189 193 180 180 184 185 183 185 185 180 185 181 193 195 200 199 195 195 191 195 207 215 201 214 225 244 241 258 238
124 107 271 289 216 260 128 260 251 186 165 202 209 202 194 205 213 208 197 194 187 186 188 182 183 186 192 189 180 190 192 191 194 194 197 205 205 198 199 208 217 203 198 195 204 210 229 235 229
180 210 216 252 204 223 208 262 249 187 190 219 209 210 212 218 227 220 204 199 189 190 184 189 185 186 191 192 188 192 195 200 203 185 197 205 203 197 193 201 215 208 205 201 200 217 199 214 232
202 208 206 201 185 183 197 258 265 244 201 227 220 219 212 216 226 218 208 199 192 186 189 195 191 193 191 186 189 190 191 212 191 208 205 199 207 193 197 210 212 196 206 211 205 214 210 213 222
174 196 232 235 177 160 222 251 261 247 238 253 237 227 220 224 238 208 202 198 191 189 189 192 192 194 184 182 192 208 216 212 211 213 207 207 203 200 205 213 204 196 210 215 204 191 215 244 207
230 213 224 272 142 194 266 255 252 206 235 209 233 233 231 230 225 218 199 194 202 202 203 199 203 194 194 199 202 200 187 210 211 201 209 209 202 199 204 211 210 207 214 214 203 187 201 227 172
216 226 211 235 91 307 333 263 239 243 245 239 232 230 233 226 231 227 203 201 201 208 205 206 202 197 198 202 190 151 107 79 178 198 212 213 204 202 204 205 209 205 204 220 212 205 201 231 205
218 187 170 167 168 232 187 261 238 230 227 227 245 227 234 225 228 234 213 204 202 211 207 207 206 201 198 192 196 202 210 221 221 216 209 211 202 210 209 210 208 213 211 222 214 203 215 203 231
236 161 184 185 207 237 216 272 260 179 232 230 241 237 232 226 217 226 211 210 209 207 202 204 201 201 198 193 201 201 209 223 223 204 202 208 209 214 214 214 216 220 215 221 212 197 205 204 224
131 119 84 45 148 240 228 214 223 211 205 230 240 240 241 231 225 223 217 204 209 208 201 194 191 204 195 195 201 201 209 214 205 210 214 218 219 216 222 216 219 220 221 219 216 215 211 214 219
190 161 194 214 225 240 185 195 236 226 208 213 229 234 235 235 215 211 209 207 206 195 193 189 188 202 198 197 200 206 211 209 214 215 215 210 209 217 221 208 213 219 223 227 223 216 220 220 221
199 189 185 188 195 224 155 226 242 218 210 215 229 233 243 243 229 217 214 212 211 200 191 193 192 206 195 200 206 208 215 212 218 223 219 216 221 224 219 209 217 223 226 229 227 227 231 230 227
190 206 197 100 13 61 194 277 283 252 244 223 231 231 240 244 232 222 211 202 204 190 190 191 195 205 195 200 201 205 214 213 217 219 211 224 219 227 208 205 211 219 219 224 222 227 233 230 230
180 200 191 192 174 214 227 247 232 195 215 234 245 236 240 232 248 238 206 200 202 198 188 180 190 196 194 187 190 199 203 206 213 207 216 219 222 208 206 211 216 222 224 224 223 231 234 233 231
194 191 218 211 161 198 251 246 197 199 208 217 225 229 227 223 213 218 201 180 165 148 165 181 182 177 181 184 186 192 193 193 196 208 213 211 218 209 216 224 226 227 227 227 228 234 237 235 236
216 205 200 205 205 219 249 251 192 215 207 207 213 223 223 205 183 201 178 170 160 163 160 173 174 180 193 181 176 188 174 183 204 225 232 243 245 229 228 229 233 234 232 233 238 241 246 252 253